EW2832 Weather Reports


time (UTC)temp
C
wind
direction
speed
KPH
gust
KPH
rain 1hr
cm
rain 24hr
cm
rain mn
cm
humidity
%
barometer
mb
20260503211501 14 225 37.0 38.6 0.00 0.00 0.00 36 1010.9
20260503210959 14 225 37.0 37.0 0.00 0.00 0.00 37 1010.8
20260503210459 15 225 37.0 37.0 0.00 0.00 0.00 35 1010.8
20260503210000 15 225 35.4 37.0 0.00 0.00 0.00 35 1010.8
20260503205459 15 225 33.8 37.0 0.00 0.00 0.00 35 1010.8
20260503205000 15 222 35.4 37.0 0.00 0.00 0.00 35 1010.9
20260503203500 15 227 33.8 35.4 0.00 0.00 0.00 35 1011.0
20260503202959 15 227 32.2 35.4 0.00 0.00 0.00 36 1011.2
20260503202500 15 224 30.6 33.8 0.00 0.00 0.00 37 1011.1
20260503202000 15 224 32.2 37.0 0.00 0.00 0.00 37 1011.1
20260503201000 15 222 35.4 40.2 0.00 0.00 0.00 33 1011.2
20260503200500 15 225 35.4 37.0 0.00 0.00 0.00 35 1011.3
20260503200000 15 225 33.8 37.0 0.00 0.00 0.00 35 1011.3
20260503195500 15 225 33.8 35.4 0.00 0.00 0.00 37 1011.4
20260503195000 15 225 33.8 37.0 0.00 0.00 0.00 36 1011.4
20260503194500 15 225 33.8 37.0 0.00 0.00 0.00 35 1011.5
20260503193500 15 224 32.2 33.8 0.00 0.00 0.00 36 1011.6
20260503193000 15 224 29.0 33.8 0.00 0.00 0.00 36 1011.7
20260503192459 15 225 29.0 32.2 0.00 0.00 0.00 36 1011.8
20260503192000 15 225 29.0 32.2 0.00 0.00 0.00 36 1011.8
20260503191501 15 224 29.0 30.6 0.00 0.00 0.00 37 1011.9
20260503191000 15 224 29.0 30.6 0.00 0.00 0.00 38 1011.9
20260503190501 14 227 29.0 30.6 0.00 0.00 0.00 40 1012.1
20260503190000 14 226 27.4 30.6 0.00 0.00 0.00 40 1012.1
20260503185500 14 222 24.1 27.4 0.00 0.00 0.00 42 1012.1
20260503185000 13 217 20.9 24.1 0.00 0.00 0.00 44 1012.2
20260503184500 14 213 20.9 24.1 0.00 0.00 0.00 44 1012.5
20260503183959 14 214 20.9 24.1 0.00 0.00 0.00 42 1012.4
20260503183500 14 217 19.3 20.9 0.00 0.00 0.00 45 1012.6
20260503182959 14 218 20.9 20.9 0.00 0.00 0.00 44 1012.6
20260503182500 14 219 20.9 24.1 0.00 0.00 0.00 43 1012.8
20260503181959 14 224 22.5 24.1 0.00 0.00 0.00 42 1012.9
20260503181501 14 224 24.1 24.1 0.00 0.00 0.00 42 1013.0
20260503180959 14 224 24.1 24.1 0.00 0.00 0.00 42 1012.9
20260503180000 14 225 25.7 27.4 0.00 0.00 0.00 39 1013.0
20260503175500 14 225 25.7 29.0 0.00 0.00 0.00 40 1013.2
20260503175001 14 225 27.4 30.6 0.00 0.00 0.00 40 1013.2
20260503174459 13 222 29.0 30.6 0.00 0.00 0.00 41 1013.2
20260503173959 13 223 29.0 32.2 0.00 0.00 0.00 41 1013.3
20260503173500 13 225 29.0 33.8 0.00 0.00 0.00 40 1013.4
20260503173000 13 222 29.0 33.8 0.00 0.00 0.00 39 1013.6
20260503172500 13 219 30.6 33.8 0.00 0.00 0.00 40 1013.6
20260503172001 12 222 32.2 35.4 0.00 0.00 0.00 39 1013.4
20260503171500 12 225 32.2 35.4 0.00 0.00 0.00 39 1013.5
20260503170959 12 225 30.6 33.8 0.00 0.00 0.00 39 1013.6
20260503170500 13 225 30.6 32.2 0.00 0.00 0.00 37 1013.7
20260503150459 11 225 38.6 41.8 0.00 0.00 0.00 33 1014.7
20260503130959 10 248 41.8 43.5 0.00 0.00 0.00 37 1014.9
20260503130459 10 247 41.8 43.5 0.00 0.00 0.00 35 1015.0
20260503110459 7 246 14.5 19.3 0.00 0.00 0.00 30 1015.3
20260503090459 6 238 9.7 11.3 0.00 0.00 0.00 30 1015.3
20260503081500 6 259 8.0 11.3 0.00 0.00 0.00 30 1015.5
20260503080959 6 233 9.7 11.3 0.00 0.00 0.00 30 1015.6
20260503080459 6 248 9.7 11.3 0.00 0.00 0.00 30 1015.6
20260503072500 6 292 8.0 11.3 0.00 0.00 0.00 30 1015.5
20260503071959 6 286 8.0 11.3 0.00 0.00 0.00 30 1015.5
20260503070959 6 314 9.7 11.3 0.00 0.00 0.00 30 1015.5
20260503053958 7 283 9.7 12.9 0.00 0.00 0.00 30 1016.2
20260503053459 7 292 8.0 11.3 0.00 0.00 0.00 30 1016.1
20260503052958 7 291 8.0 9.7 0.00 0.00 0.00 30 1016.1
20260503052500 7 305 8.0 9.7 0.00 0.00 0.00 30 1016.2
20260503051959 7 297 8.0 9.7 0.00 0.00 0.00 30 1016.2
20260503051459 7 290 8.0 9.7 0.00 0.00 0.00 30 1016.3
20260503050958 7 307 9.7 9.7 0.00 0.00 0.00 30 1016.2
20260503050458 7 307 9.7 12.9 0.00 0.00 0.00 30 1016.1
20260503045959 7 279 8.0 12.9 0.00 0.00 0.00 30 1016.1
20260503045458 6 297 8.0 11.3 0.00 0.00 0.00 30 1016.3
20260503044959 7 309 8.0 11.3 0.00 0.00 0.00 30 1016.3
20260503044458 7 294 8.0 9.7 0.00 0.00 0.00 30 1016.3
20260503043959 6 288 8.0 9.7 0.00 0.00 0.00 30 1016.3
20260503043458 6 285 6.4 9.7 0.00 0.00 0.00 30 1016.3
20260503042958 6 284 6.4 9.7 0.00 0.00 0.00 30 1016.3
20260503042458 6 292 6.4 9.7 0.00 0.00 0.00 30 1016.3
20260503041959 6 297 6.4 8.0 0.00 0.00 0.00 30 1016.3
20260503041458 6 300 4.8 6.4 0.00 0.00 0.00 30 1016.2
20260503040958 6 258 4.8 6.4 0.00 0.00 0.00 30 1016.3
20260503040458 6 263 4.8 6.4 0.00 0.00 0.00 30 1016.3
20260503035959 6 279 4.8 6.4 0.00 0.00 0.00 30 1016.4
20260503035459 6 274 4.8 6.4 0.00 0.00 0.00 30 1016.4
20260503033958 6 304 4.8 6.4 0.00 0.00 0.00 30 1016.6
20260503033459 6 293 4.8 6.4 0.00 0.00 0.00 30 1016.6
20260503032959 6 283 6.4 6.4 0.00 0.00 0.00 30 1016.7
20260503032458 6 290 4.8 6.4 0.00 0.00 0.00 30 1016.6
20260503031959 6 295 4.8 6.4 0.00 0.00 0.00 30 1016.6
20260503031458 6 285 4.8 6.4 0.00 0.00 0.00 30 1016.7
20260503030959 6 260 4.8 6.4 0.00 0.00 0.00 30 1016.6
20260503030458 6 268 4.8 6.4 0.00 0.00 0.00 30 1016.7
20260503025959 6 290 6.4 6.4 0.00 0.00 0.00 30 1016.8
20260503024958 6 305 6.4 8.0 0.00 0.00 0.00 30 1016.7
20260503024459 6 278 6.4 6.4 0.00 0.00 0.00 30 1016.8
20260503023959 6 277 6.4 6.4 0.00 0.00 0.00 30 1016.8
20260503022459 6 277 4.8 6.4 0.00 0.03 0.00 30 1017.0
20260503021958 6 294 4.8 6.4 0.00 0.03 0.00 30 1016.8
20260503021458 6 322 4.8 6.4 0.00 0.03 0.00 30 1016.8
20260503020959 6 346 6.4 6.4 0.00 0.03 0.00 30 1016.8
20260503020458 6 343 4.8 6.4 0.00 0.03 0.00 30 1016.8
20260503015459 6 286 4.8 6.4 0.00 0.03 0.00 30 1016.7
20260503014958 7 295 4.8 6.4 0.00 0.03 0.00 30 1016.7
20260503014459 7 294 4.8 6.4 0.00 0.03 0.00 30 1016.8
20260503013958 7 294 4.8 6.4 0.00 0.03 0.00 30 1016.7
20260503013458 7 295 4.8 6.4 0.00 0.03 0.00 30 1016.8
20260503012958 7 294 3.2 6.4 0.00 0.03 0.00 30 1016.7
20260503012459 7 276 3.2 4.8 0.00 0.03 0.00 30 1016.6
20260503012000 7 246 3.2 4.8 0.00 0.03 0.00 30 1016.7
20260503011459 7 270 3.2 3.2 0.00 0.03 0.00 30 1016.6
20260503010958 7 307 3.2 3.2 0.00 0.03 0.00 30 1016.6
20260503010459 7 301 3.2 3.2 0.00 0.03 0.00 30 1016.7
20260503005458 7 270 1.6 3.2 0.00 0.03 0.00 30 1016.6
20260503004959 7 265 3.2 6.4 0.00 0.03 0.00 30 1016.5
20260503003958 7 273 4.8 6.4 0.00 0.03 0.00 30 1016.6
20260503003458 7 289 4.8 6.4 0.00 0.03 0.00 30 1016.5
20260503002959 7 272 3.2 6.4 0.00 0.03 0.00 30 1016.4
20260503002459 7 253 4.8 6.4 0.00 0.03 0.00 30 1016.6
20260503001958 7 269 4.8 6.4 0.00 0.03 0.00 30 1016.4
20260503001458 8 289 4.8 6.4 0.00 0.03 0.00 30 1016.4
20260503000958 8 304 4.8 6.4 0.00 0.03 0.00 30 1016.4
20260502235958 8 299 4.8 6.4 0.00 0.03 0.00 30 1016.4
20260502235458 8 304 4.8 8.0 0.00 0.03 0.00 30 1016.5
20260502234959 8 299 4.8 8.0 0.00 0.03 0.00 30 1016.3
20260502234458 8 288 4.8 8.0 0.00 0.03 0.00 30 1016.3
20260502233959 8 289 6.4 11.3 0.00 0.03 0.00 30 1016.6
20260502233458 8 295 6.4 11.3 0.00 0.03 0.00 30 1016.5
20260502232959 8 329 4.8 6.4 0.00 0.03 0.00 30 1016.4
20260502232458 8 321 4.8 6.4 0.00 0.03 0.00 30 1016.4
20260502231958 9 280 4.8 6.4 0.00 0.03 0.00 30 1016.4
20260502231458 9 252 4.8 6.4 0.00 0.03 0.00 30 1016.5
20260502230959 8 323 6.4 11.3 0.00 0.03 0.00 30 1016.4
20260502230458 8 330 8.0 12.9 0.00 0.03 0.00 30 1016.3
20260502225959 8 332 8.0 12.9 0.00 0.03 0.00 30 1016.4
20260502225458 8 351 6.4 11.3 0.00 0.03 0.00 30 1016.4
20260502224958 8 340 6.4 11.3 0.00 0.03 0.00 30 1016.4
20260502224458 8 326 6.4 11.3 0.00 0.03 0.00 30 1016.6
20260502223958 8 316 8.0 12.9 0.00 0.03 0.00 30 1016.5
20260502223458 8 334 9.7 12.9 0.00 0.03 0.00 30 1016.5
20260502222957 8 337 9.7 12.9 0.00 0.03 0.00 30 1016.6
20260502222458 8 328 9.7 12.9 0.00 0.05 0.00 30 1016.5
20260502221959 8 324 11.3 16.1 0.00 0.05 0.00 30 1016.7
20260502220959 8 345 8.0 9.7 0.00 0.05 0.00 30 1016.4
20260502220459 8 343 6.4 9.7 0.00 0.05 0.00 30 1016.6
20260502215958 8 310 8.0 14.5 0.00 0.05 0.00 30 1016.6
20260502215458 8 324 11.3 14.5 0.00 0.05 0.00 30 1016.6
20260502214958 8 336 9.7 14.5 0.00 0.05 0.00 30 1016.7
20260502214458 8 321 9.7 17.7 0.00 0.05 0.00 30 1016.6
20260502213958 8 302 9.7 17.7 0.00 0.05 0.00 30 1016.5
20260502213458 8 298 6.4 16.1 0.00 0.05 0.00 30 1016.5
20260502212458 8 331 8.0 12.9 0.00 0.05 0.00 30 1016.5